Regional Weather Roundup
Issued by NWS

Home | Current Version | Previous Version | Text Only | Print | Product List | Glossary Off
Versions: 1 2 3 4 5 6 7 8 9 10 11 12 13 14 15 16 17 18 19 20 21 22 23 24 25 26 27 28 29 30 31 32 33 34 35 36 37 38 39 40 41 42 43 44 45 46 47 48 49 50

000
ASUS43 KLOT 271204
RWRIL

ILLINOIS REGIONAL WEATHER ROUNDUP
NATIONAL WEATHER SERVICE CHICAGO/ROMEOVILLE IL
700 AM CDT THU JUL 27 2017

NOTE: "FAIR" INDICATES FEW OR NO CLOUDS BELOW 12,000 FEET WITH NO
SIGNIFICANT WEATHER AND/OR OBSTRUCTIONS TO VISIBILITY.

* THESE STATIONS ARE NOT UNDER NWS QUALITY CONTROL. THEY ALSO MAY NOT
  REPORT WEATHER SUCH AS PRECIPITATION OR FOG.

ILZ001-002-007-009-015-016-024-271300-
NORTHWEST ILLINOIS

CITY           SKY/WX    TMP DP  RH WIND       PRES   REMARKS
MOLINE         CLOUDY    72  68  87 N8        29.94R
6HR MIN TEMP:  72; 6HR MAX TEMP:  74;

STERLING*      PTSUNNY   71  70  96 N6        29.95S
SAVANNA*       CLOUDY    71  70  98 N3        29.96R
$$

ILZ003-004-008-010-011-017-018-271300-
NORTH CENTRAL ILLINOIS

CITY           SKY/WX    TMP DP  RH WIND       PRES   REMARKS
ROCKFORD       CLOUDY    73  70  90 NE7       29.97R FOG
6HR MIN TEMP:  72; 6HR MAX TEMP:  74;

FREEPORT*      CLOUDY    70  69  99 N9        29.99R FOG
ROCHELLE*      CLOUDY    71  70  99 NE6       29.95S FOG
DE KALB*       PTSUNNY   70  70  98 NE5       29.96S FOG
PERU*          CLOUDY    72  70  93 CALM      29.94S
$$

ILZ005-006-012>014-019>023-271300-
NORTHEAST ILLINOIS

CITY           SKY/WX    TMP DP  RH WIND       PRES   REMARKS
CHICAGO-OHARE  PTSUNNY   74  69  85 N8        29.93F HAZE
6HR MIN TEMP:  73; 6HR MAX TEMP:  76; 6HR PCP: TRACE;

CHICAGO-MIDWAY MOSUNNY   76  71  85 NE5       29.92F
6HR MIN TEMP:  74; 6HR MAX TEMP:  77; 6HR PCP: TRACE;

AURORA         PTSUNNY   72  71  97 N7        29.94F
6HR MIN TEMP:  70; 6HR MAX TEMP:  72;

LANSING*       CLOUDY    73  71  92 N3        29.93S FOG
JOLIET*        CLOUDY    74  73  94 N6        29.94S
WAUKEGAN       SUNNY     71  70  96 N5        29.94S FOG
6HR MIN TEMP:  70; 6HR MAX TEMP:  74;

DUPAGE AIRPORT CLOUDY    72  72 100 N6        29.94S FOG
6HR MIN TEMP:  70; 6HR MAX TEMP:  73;

KANKAKEE*      CLOUDY    71  70  98 CALM      29.95S
WHEELING       CLOUDY    73  72  96 N5        29.95S
6HR MIN TEMP:  72; 6HR MAX TEMP:  76;

MORRIS*        CLOUDY    72  71  96 CALM      29.93S FOG
ROMEOVILLE*    MOSUNNY   72  68  89 CALM      29.94S
NORTHERLY ISL    N/A     73  69  87 N5          N/A
$$

LMZ740>746-271300-
SOUTHERN LAKE MICHIGAN

STATION/POSITION SKY/WX   TEMP    WIND        PRES    VSBY  WAVE
                          AIR SEA DIR/SP/G                  HT/PER
                          (F)     (DEG/KT/KT) (MB)    (MI)  (FT/S)
SOUTHERN BUOY              71 71   60/  8/  8 1013.2          0
WILMETTE HARBOR            71 72  330/  6/  8   N/A           1/ 2
HARRISON CRIB              74     350/ 10/ 10   N/A
BURNHAM HARBOR             74                   N/A
CALUMET HARBOR             73     310/  6/  8 1013.0F
BURNS HARBOR               73     240/  3/  4 1013.5S
MICHIGAN CITY              72     270/  1/  1   N/A
MICHIGAN CITY 6N           73 74  340/  4/  4   N/A           1
ST. JOSEPH                 73 74  120/  2/  2 1012.9F         0
$$

ILZ025>027-034>036-040-047-049-050-058-095>099-271300-
WEST-CENTRAL ILLINOIS

CITY           SKY/WX    TMP DP  RH WIND       PRES   REMARKS
QUINCY         RAIN      75  73  93 E5        29.94R FOG
GALESBURG*     CLOUDY    72  72 100 CALM      29.96R FOG
MACOMB*        CLOUDY    73  73 100 CALM      29.97S FOG
JACKSONVILLE*  CLOUDY    74  73  97 S6        29.93S
PITTSFIELD*    RAIN      74  74  99 CALM      29.95R
$$

ILZ028>032-037-038-041>044-048-051>054-059>061-271300-
CENTRAL ILLINOIS

CITY           SKY/WX    TMP DP  RH WIND       PRES   REMARKS
PONTIAC        CLOUDY    73  72  98 CALM      29.95S FOG
BLOOMINGTON    CLOUDY    72  72 100 W6        29.95S FOG
DECATUR        CLOUDY    74  72  93 SW8       29.94S
PEORIA         CLOUDY    73  73 100 CALM      29.94S FOG
6HR MIN TEMP:  72; 6HR MAX TEMP:  73;

LACON*         CLOUDY    72  72 100 CALM      29.93F FOG
LINCOLN*       CLOUDY    74  74 100 CALM      29.94S
SPRINGFIELD    CLOUDY    76  75  97 CALM      29.94S
6HR MIN TEMP:  75; 6HR MAX TEMP:  76; 6HR PCP:  0.08;

TAYLORVILLE    RAIN      72  72 100 S7        29.95F
6HR MIN TEMP:  72; 6HR MAX TEMP:  73; 6HR PCP:  1.18;

$$

ILZ033-039-045-046-055>057-062-063-271300-
EAST-CENTRAL ILLINOIS

CITY           SKY/WX    TMP DP  RH WIND       PRES   REMARKS
CHAMPAIGN      CLOUDY    74  72  93 SW7       29.94S
RANTOUL*       CLOUDY    74  74  99 CALM      29.94F
MATTOON        LGT RAIN  72  72 100 S7        29.95F FOG
PARIS*         CLOUDY    73  73  99 SW7       29.96S
$$

ILZ079-100>102-271300-
SOUTHWEST ILLINOIS

CITY           SKY/WX    TMP DP  RH WIND       PRES   REMARKS
ALTON          RAIN      72  72 100 SE6       29.95F
BELLEVILLE     LGT RAIN  74  73  97 CALM      29.96F
CAHOKIA*       LGT RAIN  76  74  93 S5        29.94F
SPARTA*        DRIZZLE   74  74  99 E8        29.98S
$$

ILZ064>066-069>071-074>076-080>082-084>086-088>090-092>094-271300-
SOUTH-CENTRAL ILLINOIS

CITY           SKY/WX    TMP DP  RH WIND       PRES   REMARKS
CARBONDALE     CLOUDY    78  78 100 CALM      29.96S HX  81
6HR MIN TEMP:  78; 6HR MAX TEMP:  80; 6HR PCP: TRACE;

CAIRO*         CLOUDY    78  75  92 SW3       29.97R
EFFINGHAM*     LGT RAIN  73  73 100 S6        29.97F
MARION         LGT RAIN  79  79 100 W5        29.97S HX  83
MT. VERNON     LGT RAIN  73  73 100 CALM      29.97S
CENTRALIA*     RAIN      74  74 100 E3        29.95F
SALEM*         LGT RAIN  74  73  95 CALM      29.96F
METROPOLIS*    CLOUDY    78  75  90 S7        29.98S HX  80
$$

ILZ067-068-072-073-078-083-087-091-271300-
SOUTHEAST ILLINOIS

CITY           SKY/WX    TMP DP  RH WIND       PRES   REMARKS
LAWRENCEVILLE  RAIN      73  50  44 W5        29.96F
FLORA*         RAIN      75  73  95 W6        29.97S
FAIRFIELD*     RAIN      73  73 100 CALM      29.97R
HARRISBURG*    CLOUDY    77  75  93 CALM      29.97S
ROBINSON*      CLOUDY    71  71 100 CALM      29.97S
CARMI*         LGT RAIN  73  73 100 CALM      29.97S
$$

ABBREVIATIONS USED IN REMARKS
   TC - TEMPERATURE IN CELSIUS
  WCI - WIND CHILL INDEX
   HX - HEAT INDEX
  VSB - VISIBILITY
$$




USA.gov is the U.S. government's official web portal to all federal, state and local government web resources and services.